Overview Statistics Trail Chart Weather Telemetry Raw packets
 

This is the latest recevied weather packets stored in our database for station/object SV4JYD-14. If no packets are shown the sender has not sent any weather packets the latest 10 day(s).

<< 3 4 5 6 7 8 9 >>
Time Temp. Humidity Pressure Rain* Wind** Luminosity Snow
1777914949 14.44° C 47% 1017 hPa 0 mm - - -
1777914049 14.44° C 47% 1017 hPa 0 mm - - -
1777913149 14.44° C 47% 1017 hPa 0 mm - - -
1777912249 14.44° C 46% 1017 hPa 0 mm - - -
1777911348 15° C 46% 1017 hPa 0 mm - - -
1777910448 15° C 44% 1017 hPa 0 mm - - -
1777909548 15.56° C 40% 1017 hPa 0 mm - - -
1777908648 15.56° C 39% 1017 hPa 0 mm - - -
1777907747 15.56° C 39% 1017 hPa 0 mm - - -
1777906847 16.11° C 39% 1017 hPa 0 mm - - -
1777905947 16.67° C 38% 1017 hPa 0 mm - - -
1777905046 16.67° C 37% 1017 hPa 0 mm - - -
1777904146 16.67° C 38% 1017 hPa 0 mm - - -
1777903246 17.22° C 38% 1016 hPa 0 mm - - -
1777902345 17.22° C 39% 1016 hPa 0 mm - - -
1777901445 16.67° C 39% 1016 hPa 0 mm - - -
1777900545 17.22° C 36% 1017 hPa 0 mm - - -
1777899645 17.22° C 36% 1017 hPa 0 mm - - -
1777898744 17.22° C 37% 1017 hPa 0 mm - - -
1777897844 17.78° C 38% 1017 hPa 0 mm - - -
1777896944 17.78° C 36% 1017 hPa 0 mm - - -
1777896044 17.78° C 36% 1017 hPa 0 mm - - -
1777895143 17.78° C 37% 1017 hPa 0 mm - - -
1777894243 17.22° C 38% 1017 hPa 0 mm - - -
1777893343 17.22° C 36% 1018 hPa 0 mm - - -

* Rain latest hour (hover to see other rain measurements)
** Current wind speed in m/s (hover to see current wind gust speed)